• In Moldova, Republic
  • List of Countries
  • For 7 days
  • Water Temperature
  • Satellite Maps
  • Weather Map
  • Weather Widgets
  • user-avatar
    Login

    Hourly Weather Kaprun

    Today, 16 August, Wednesday

    Time Temperature Precipitation Wind Pressure Humidity
    00:00 +10°C° 0.1 mm 1 mps 602 mmHg 83%
    01:00 +9°C° 0 mm 1 mps 602 mmHg 84%
    02:00 +9°C° 0.4 mm 1 mps 602 mmHg 86%
    03:00 +8°C° 0.4 mm 1 mps 602 mmHg 89%
    04:00 +8°C° 0.4 mm 1 mps 601 mmHg 91%
    05:00 +9°C° 0.5 mm 1 mps 602 mmHg 92%
    06:00 +9°C° 0.5 mm 1 mps 603 mmHg 92%
    07:00 +9°C° 0 mm 2 mps 603 mmHg 93%
    08:00 +10°C° 0.4 mm 2 mps 604 mmHg 90%
    09:00 +12°C° 0.4 mm 1 mps 604 mmHg 86%
    10:00 +14°C° 0.4 mm 1 mps 604 mmHg 83%
    11:00 +14°C° 0.7 mm 1 mps 605 mmHg 79%
    12:00 +15°C° 0.7 mm 1 mps 605 mmHg 75%
    13:00 +16°C° 0.7 mm 1 mps 605 mmHg 71%
    14:00 +16°C° 1 mm 1 mps 605 mmHg 73%
    15:00 +16°C° 1 mm 1 mps 605 mmHg 74%
    16:00 +15°C° 1 mm 1 mps 604 mmHg 75%
    17:00 +14°C° 0.7 mm 1 mps 604 mmHg 80%
    18:00 +13°C° 0.7 mm 1 mps 603 mmHg 86%
    19:00 +11°C° 0.7 mm 1 mps 603 mmHg 91%
    20:00 +10°C° 0.1 mm 1 mps 602 mmHg 92%
    21:00 +9°C° 0.1 mm 1 mps 602 mmHg 93%
    22:00 +8°C° 0.1 mm 1 mps 602 mmHg 94%
    23:00 +8°C° 0 mm 1 mps 602 mmHg 93%

    Tomorrow, 17 August, Thursday

    Time Temperature Precipitation Wind Pressure Humidity
    00:00 +8°C° 0 mm 1 mps 602 mmHg 92%
    01:00 +8°C° 0 mm 1 mps 602 mmHg 91%
    02:00 +8°C° 0 mm 1 mps 601 mmHg 90%
    03:00 +8°C° 0 mm 1 mps 601 mmHg 89%
    04:00 +7°C° 0 mm 1 mps 601 mmHg 89%
    05:00 +9°C° 0 mm 1 mps 602 mmHg 86%
    06:00 +10°C° 0 mm 1 mps 602 mmHg 83%
    07:00 +11°C° 0 mm 1 mps 603 mmHg 80%
    08:00 +13°C° 0 mm 1 mps 604 mmHg 69%
    09:00 +16°C° 0 mm 1 mps 605 mmHg 58%
    10:00 +17°C° 0 mm 0 mps 606 mmHg 48%
    11:00 +20°C° 0 mm 1 mps 606 mmHg 46%
    12:00 +21°C° 0 mm 1 mps 606 mmHg 44%
    13:00 +21°C° 0 mm 1 mps 606 mmHg 43%
    14:00 +21°C° 0.1 mm 1 mps 605 mmHg 47%
    15:00 +20°C° 0.1 mm 1 mps 605 mmHg 52%
    16:00 +19°C° 0.1 mm 1 mps 605 mmHg 57%
    17:00 +16°C° 0.1 mm 1 mps 604 mmHg 66%
    18:00 +14°C° 0.1 mm 1 mps 603 mmHg 76%
    19:00 +12°C° 0.1 mm 0 mps 602 mmHg 86%
    20:00 +12°C° 0 mm 1 mps 602 mmHg 87%
    21:00 +11°C° 0 mm 1 mps 602 mmHg 89%
    22:00 +10°C° 0 mm 1 mps 602 mmHg 91%
    23:00 +10°C° 0 mm 1 mps 602 mmHg 90%

    Day after tomorrow, 18 August, Friday

    Time Temperature Precipitation Wind Pressure Humidity
    00:00 +9°C° 0 mm 1 mps 601 mmHg 90%
    01:00 +9°C° 0 mm 1 mps 601 mmHg 90%
    02:00 +9°C° 0 mm 1 mps 601 mmHg 89%
    03:00 +9°C° 0 mm 1 mps 601 mmHg 89%
    04:00 +9°C° 0 mm 1 mps 601 mmHg 89%
    05:00 +10°C° 0 mm 1 mps 601 mmHg 86%
    06:00 +11°C° 0 mm 1 mps 602 mmHg 84%
    07:00 +12°C° 0 mm 1 mps 602 mmHg 81%
    08:00 +15°C° 0 mm 1 mps 603 mmHg 71%
    09:00 +18°C° 0 mm 1 mps 604 mmHg 62%
    10:00 +20°C° 0 mm 1 mps 605 mmHg 52%
    11:00 +20°C° 0 mm 2 mps 605 mmHg 50%
    12:00 +21°C° 0 mm 2 mps 605 mmHg 48%
    13:00 +23°C° 0 mm 2 mps 605 mmHg 46%
    14:00 +21°C° 0.1 mm 2 mps 604 mmHg 50%
    15:00 +20°C° 0.1 mm 2 mps 604 mmHg 55%
    16:00 +19°C° 0.1 mm 3 mps 603 mmHg 59%
    17:00 +18°C° 0.7 mm 2 mps 602 mmHg 68%
    18:00 +16°C° 0.7 mm 2 mps 601 mmHg 77%
    19:00 +14°C° 0.7 mm 1 mps 601 mmHg 85%
    20:00 +13°C° 0.8 mm 1 mps 600 mmHg 88%
    21:00 +12°C° 0.8 mm 1 mps 600 mmHg 91%
    22:00 +10°C° 0.8 mm 2 mps 600 mmHg 94%
    23:00 +10°C° 0.3 mm 2 mps 600 mmHg 95%

    19 August, Saturday

    Time Temperature Precipitation Wind Pressure Humidity
    00:00 +9°C° 0.3 mm 2 mps 600 mmHg 96%
    01:00 +9°C° 0.3 mm 2 mps 600 mmHg 96%
    02:00 +9°C° 1.6 mm 2 mps 600 mmHg 97%
    03:00 +8°C° 1.6 mm 2 mps 600 mmHg 97%
    04:00 +8°C° 1.6 mm 2 mps 600 mmHg 97%
    05:00 +7°C° 4.2 mm 2 mps 600 mmHg 97%
    06:00 +7°C° 4.2 mm 2 mps 599 mmHg 97%
    07:00 +5°C° 4.2 mm 3 mps 599 mmHg 96%
    08:00 +6°C° 1.9 mm 2 mps 599 mmHg 93%
    09:00 +6°C° 1.9 mm 2 mps 600 mmHg 91%
    10:00 +7°C° 1.9 mm 1 mps 600 mmHg 88%
    11:00 +8°C° 0.5 mm 1 mps 600 mmHg 83%
    12:00 +9°C° 0.5 mm 1 mps 601 mmHg 78%
    13:00 +10°C° 0.5 mm 2 mps 601 mmHg 73%
    14:00 +9°C° 0.6 mm 2 mps 601 mmHg 77%
    15:00 +9°C° 0.6 mm 2 mps 601 mmHg 80%
    16:00 +9°C° 0.6 mm 2 mps 601 mmHg 84%
    17:00 +8°C° 1.7 mm 2 mps 600 mmHg 88%
    18:00 +7°C° 1.7 mm 2 mps 600 mmHg 92%
    19:00 +6°C° 1.7 mm 2 mps 600 mmHg 96%
    20:00 +5°C° 0.8 mm 2 mps 600 mmHg 96%
    21:00 +5°C° 0.8 mm 2 mps 600 mmHg 96%
    22:00 +5°C° 0.8 mm 2 mps 601 mmHg 96%
    23:00 +4°C° 0.5 mm 2 mps 601 mmHg 96%

    20 August, Sunday

    Time Temperature Precipitation Wind Pressure Humidity
    00:00 +4°C° 0.5 mm 2 mps 601 mmHg 96%
    01:00 +4°C° 0.5 mm 2 mps 601 mmHg 96%
    02:00 +4°C° 0.3 mm 2 mps 601 mmHg 96%
    03:00 +4°C° 0.3 mm 2 mps 601 mmHg 96%
    04:00 +3°C° 0.3 mm 2 mps 601 mmHg 96%
    05:00 +3°C° 0 mm 2 mps 601 mmHg 96%
    06:00 +4°C° 0 mm 2 mps 601 mmHg 95%
    07:00 +4°C° 0 mm 2 mps 602 mmHg 94%
    08:00 +5°C° 0 mm 2 mps 602 mmHg 84%
    09:00 +7°C° 0 mm 2 mps 603 mmHg 73%
    10:00 +8°C° 0 mm 2 mps 604 mmHg 63%
    11:00 +9°C° 0 mm 2 mps 604 mmHg 58%
    12:00 +10°C° 0 mm 2 mps 604 mmHg 54%
    13:00 +11°C° 0 mm 3 mps 604 mmHg 49%
    14:00 +11°C° 0 mm 3 mps 604 mmHg 51%
    15:00 +11°C° 0 mm 3 mps 604 mmHg 53%
    16:00 +10°C° 0 mm 3 mps 604 mmHg 54%
    17:00 +9°C° 0 mm 2 mps 603 mmHg 64%
    18:00 +7°C° 0 mm 2 mps 603 mmHg 75%
    19:00 +5°C° 0 mm 2 mps 602 mmHg 85%
    20:00 +4°C° 0 mm 2 mps 602 mmHg 88%
    21:00 +3°C° 0 mm 2 mps 602 mmHg 90%
    22:00 +2°C° 0 mm 2 mps 602 mmHg 93%
    23:00 +2°C° 0 mm 2 mps 601 mmHg 92%

    21 August, Monday

    Time Temperature Precipitation Wind Pressure Humidity
    00:00 +1°C° 0 mm 2 mps 601 mmHg 90%
    01:00 +1°C° 0 mm 2 mps 601 mmHg 88%
    02:00 +1°C° 0 mm 2 mps 601 mmHg 85%
    03:00 +1°C° 0 mm 2 mps 601 mmHg 82%
    04:00 +1°C° 0 mm 2 mps 600 mmHg 79%
    05:00 +2°C° 0 mm 2 mps 601 mmHg 74%
    06:00 +3°C° 0 mm 2 mps 602 mmHg 69%
    07:00 +5°C° 0 mm 2 mps 602 mmHg 65%
    08:00 +7°C° 0 mm 2 mps 603 mmHg 54%
    09:00 +10°C° 0 mm 2 mps 604 mmHg 43%
    10:00 +14°C° 0 mm 2 mps 605 mmHg 32%
    11:00 +15°C° 0 mm 2 mps 605 mmHg 31%
    12:00 +16°C° 0 mm 2 mps 605 mmHg 29%
    13:00 +17°C° 0 mm 2 mps 605 mmHg 27%
    14:00 +16°C° 0 mm 2 mps 605 mmHg 30%
    15:00 +16°C° 0 mm 2 mps 605 mmHg 32%
    16:00 +16°C° 0 mm 2 mps 604 mmHg 35%
    17:00 +13°C° 0 mm 2 mps 603 mmHg 46%
    18:00 +11°C° 0 mm 1 mps 602 mmHg 57%
    19:00 +8°C° 0 mm 1 mps 601 mmHg 69%
    20:00 +8°C° 0 mm 1 mps 601 mmHg 68%
    21:00 +7°C° 0 mm 1 mps 601 mmHg 68%
    22:00 +6°C° 0 mm 1 mps 601 mmHg 68%
    23:00 +6°C° 0 mm 1 mps 600 mmHg 67%
    Show more